[[{"header":{"parameterUnit":"m.s-1","parameterCategory":1,"la1":30.2991,"la2":30.254,"lo1":-89.0895,"lo2":-89.0444,"dy":0.0017,"dx":0.0017,"nx":28,"ny":28,"refTime":"2024-04-11T09:00:00:Z","depth":0,"parameterNumber":2,"parameterNumberName":"U-component_of_WINDS"},"data":[0,0,0,0,0,0,0,0,0,0,0,0,0,0,0,0,0,0,0,0,0,0,0,0,0,0,0,0,0,0,0,0,0,0,0,0,0,0,0,0,0,0,0,0,0,0,0,0,0,0,0,0,0,0,0,0,0,0,2.8626,2.8628,0,2.8774,2.8776,2.8778,2.8809,2.8808,2.8807,2.8806,2.8963,2.8968,2.8973,0,0,0,0,0,0,0,0,0,0,0,0,0,2.8378,2.8382,2.8626,2.8628,2.863,2.8774,2.8776,2.8778,2.881,2.8808,2.8807,2.8806,2.8961,2.8967,2.8973,0,0,0,0,0,0,0,0,0,0,0,0,0,2.8502,2.8384,2.8626,2.8663,2.8668,2.8774,2.8776,2.8779,2.881,2.8808,2.8807,2.8805,2.8959,2.8966,2.8974,2.9055,0,0,2.8998,2.9001,0,0,0,0,0,0,0,0,2.8495,2.8511,2.8656,2.866,2.8666,2.8772,2.8746,2.8871,2.881,2.8756,2.8806,2.8804,2.8901,2.8913,2.8945,2.9062,2.9069,2.8999,2.9003,2.9007,2.9009,0,0,0,0,0,0,0,2.8486,2.8505,2.8685,2.8658,2.8664,2.8674,2.869,2.877,2.8836,2.8761,2.8763,2.878,2.8903,2.8937,2.8949,2.9071,2.8998,2.9005,2.901,2.9013,2.9267,2.9269,0,0,0,0,0,0,2.847,2.8497,2.868,2.8689,2.8574,2.868,2.8698,2.8739,2.8835,2.8848,2.8781,2.8781,2.8925,2.8939,2.8954,2.9058,2.9007,2.9014,2.9018,2.9265,2.9268,2.927,0,0,0,0,0,0,2.8465,2.8486,2.8674,2.8594,2.8619,2.8686,2.8733,2.8743,2.8777,2.8851,2.8863,2.8803,2.8924,2.8943,2.903,2.9064,2.9017,2.9024,2.9263,2.9266,2.9269,2.9264,0,0,0,0,0,0,2.8457,2.8484,2.8513,2.8594,2.8623,2.8746,2.8735,2.8747,2.879,2.8791,2.8875,2.8887,2.8924,2.9019,2.9038,2.9074,2.903,2.926,2.9264,2.9268,2.9262,2.9267,2.9271,0,0,0,0,0,2.8448,2.8506,2.8515,2.8537,2.8661,2.8747,2.8764,2.8804,2.8792,2.8824,2.8872,2.8884,2.9057,2.9027,2.9049,2.9088,2.9258,2.9263,2.9268,2.926,2.9266,2.9271,0,0,0,0,0,0,2.8428,2.8518,2.8528,2.8613,2.8672,2.8752,2.8793,2.8809,2.8873,2.8872,2.8921,2.8939,2.9024,2.9065,2.903,2.9174,2.9157,2.9167,2.9144,2.915,2.9155,2.9144,2.9037,0,0,0,0,0,2.8434,2.8494,2.857,2.8638,2.8667,2.8725,2.8764,2.879,2.8854,2.888,2.8934,2.8997,2.9066,2.911,2.9177,2.9268,2.9289,2.9306,2.931,2.9314,2.9322,2.9377,2.9386,2.9286,2.9286,2.9286,0,0,2.8446,2.8502,2.8538,2.8636,2.8685,2.8749,2.8746,2.8813,2.8863,2.8891,2.8976,2.9019,2.9093,2.9183,2.9225,2.9219,2.9354,2.932,2.9322,2.9329,2.9383,2.9392,2.94,2.9289,2.9288,2.9288,0,0,2.8501,2.8548,2.8612,2.8661,2.8735,2.8774,2.8789,2.8868,2.8897,2.8983,2.9007,2.9067,2.9183,2.9236,2.9278,2.9357,2.9372,2.9378,2.9403,2.9456,2.9464,2.9471,2.9502,2.9512,2.9385,2.9385,2.9385,0,2.8507,2.8603,2.8643,2.8711,2.8755,2.8782,2.8849,2.8895,2.8988,2.9019,2.9011,2.916,2.9211,2.9316,2.9335,2.9367,2.9389,2.9369,2.9459,2.9467,2.9474,2.9504,2.9516,2.9386,2.9386,2.9386,2.9386,0,2.8609,2.8675,2.8718,2.8806,2.8855,2.8922,2.8975,2.902,2.9043,2.9083,2.9173,2.9236,2.9318,2.9345,2.9367,2.9454,2.9448,2.9449,2.9434,2.9483,2.9513,2.9524,2.9386,2.9386,2.9386,2.9386,0,0,2.8654,2.8765,2.8781,2.8823,2.8908,2.8961,2.9031,2.911,2.9149,2.9213,2.9275,2.9374,2.9376,2.9424,2.9453,2.9499,2.9561,2.9495,2.9497,2.9507,2.9665,2.9665,2.9677,2.9572,2.9574,2.9576,2.9659,0,2.8722,2.8845,2.8884,2.8988,2.9052,2.9081,2.9142,2.9202,2.9243,2.9305,2.935,2.9421,2.9417,2.9446,2.9493,2.9544,2.9594,2.9538,2.9633,2.9635,2.9614,2.9692,2.9692,2.9768,2.9671,2.9673,2.9674,0,2.8816,2.8881,2.8991,2.9071,2.91,2.9153,2.9231,2.9289,2.936,2.9386,2.9441,2.9467,2.9544,2.9524,2.9633,2.9594,2.9636,2.9667,2.9671,2.9682,2.9659,2.9708,2.9793,2.9805,2.9692,2.9691,2.9689,0,2.8842,2.8957,2.9039,2.9073,2.9168,2.9206,2.9247,2.9316,2.9362,2.9431,2.9462,2.9539,2.9581,2.9642,2.969,2.967,2.9796,2.9779,2.9822,2.9821,2.9848,2.9846,2.9943,2.9872,2.9871,2.9871,2.9871,0,2.8914,2.8981,2.9052,2.9102,2.9179,2.9225,2.9301,2.9345,2.9406,2.9468,2.9497,2.9555,2.9613,2.9679,2.9717,2.9804,2.9822,2.9848,2.9858,2.9847,2.9844,2.9875,2.9872,2.9874,2.9874,2.9873,2.9872,0,2.8956,2.9006,2.9097,2.9179,2.9202,2.9255,2.9327,2.9379,2.9421,2.9498,2.952,2.9587,2.9666,2.972,2.9822,2.9848,2.9943,2.995,2.9918,2.9923,2.9965,2.9961,3.0087,3.0107,3.002,3.0021,3.0021,0,2.8999,2.9052,2.914,2.9183,2.9224,2.9292,2.934,2.9388,2.9437,2.9523,2.9565,2.9647,2.9715,2.9842,2.9901,2.9981,2.9992,3.003,3.0004,2.9992,2.9996,2.9993,3.0,3.0035,3.0035,3.0036,3.0036,0,2.9072,2.9095,2.9161,2.9238,2.9293,2.9356,2.9419,2.9453,2.9513,2.9567,2.9648,2.9701,2.9806,2.9888,2.9973,3.0019,3.0039,3.0044,3.0059,3.0049,3.003,3.0043,2.9932,3.0041,3.0041,3.0041,3.004,3.004,2.9118,2.9167,2.9238,2.9312,2.9364,2.9423,2.9476,2.9525,2.9594,2.9682,2.9707,2.9793,2.9866,2.9983,3.003,3.01,3.0096,3.0117,3.0123,3.0128,3.0129,3.0017,3.0116,3.0115,3.0115,3.0115,3.0115,0,2.9195,2.9242,2.931,2.9397,2.9456,2.9468,2.9539,2.9589,2.9663,2.9729,2.9795,2.9891,2.9971,3.0038,3.0121,3.0165,3.0177,3.0186,3.0184,3.0195,3.0126,3.0106,3.0175,3.0175,3.0175,3.0175,3.0175,3.0175,2.9242,2.9327,2.9358,2.947,2.9518,2.9601,2.9641,2.9697,2.9749,2.9854,2.9921,2.9963,3.003,3.012,3.0195,3.0213,3.0244,3.0251,3.0271,3.0206,3.0199,3.0193,3.0174,3.0256,3.0257,3.0334,3.0335,3.0335]},{"header":{"parameterUnit":"m.s-1","parameterCategory":1,"la1":30.2991,"la2":30.254,"lo1":-89.0895,"lo2":-89.0444,"dy":0.0017,"dx":0.0017,"nx":28,"ny":28,"refTime":"2024-04-11T09:00:00:Z","depth":0,"parameterNumber":3,"parameterNumberName":"V-component_of_WINDS"},"data":[0,0,0,0,0,0,0,0,0,0,0,0,0,0,0,0,0,0,0,0,0,0,0,0,0,0,0,0,0,0,0,0,0,0,0,0,0,0,0,0,0,0,0,0,0,0,0,0,0,0,0,0,0,0,0,0,0,0,-1.8681,-1.868,0,-1.8596,-1.8595,-1.8594,-1.8657,-1.866,-1.8663,-1.8666,-1.8575,-1.857,-1.8565,0,0,0,0,0,0,0,0,0,0,0,0,0,-1.8896,-1.8892,-1.8681,-1.868,-1.8679,-1.8596,-1.8595,-1.8593,-1.8657,-1.866,-1.8664,-1.8667,-1.8577,-1.8571,-1.8565,0,0,0,0,0,0,0,0,0,0,0,0,0,-1.8806,-1.8891,-1.8681,-1.87,-1.8701,-1.8596,-1.8595,-1.8593,-1.8656,-1.866,-1.8665,-1.8669,-1.8579,-1.8571,-1.8564,-1.8434,0,0,-1.8541,-1.8538,0,0,0,0,0,0,0,0,-1.8811,-1.8798,-1.8699,-1.8699,-1.87,-1.8642,-1.8638,-1.854,-1.8655,-1.8673,-1.8666,-1.8671,-1.8593,-1.8585,-1.856,-1.8429,-1.8426,-1.854,-1.8536,-1.8532,-1.853,0,0,0,0,0,0,0,-1.8817,-1.8802,-1.8647,-1.8697,-1.8698,-1.8713,-1.8705,-1.8619,-1.8611,-1.8672,-1.8676,-1.8666,-1.8595,-1.8567,-1.8558,-1.8424,-1.854,-1.8534,-1.8529,-1.8526,-1.8184,-1.818,0,0,0,0,0,0,-1.8822,-1.8807,-1.865,-1.8644,-1.8767,-1.8706,-1.8696,-1.8656,-1.8612,-1.8609,-1.8662,-1.8669,-1.8578,-1.8567,-1.8555,-1.84,-1.8532,-1.8525,-1.8521,-1.8189,-1.8183,-1.8178,0,0,0,0,0,0,-1.8826,-1.8807,-1.8653,-1.8727,-1.8708,-1.8697,-1.8651,-1.8652,-1.8624,-1.8605,-1.8603,-1.8635,-1.858,-1.8566,-1.8464,-1.8398,-1.8522,-1.8515,-1.8194,-1.8187,-1.8181,-1.8089,0,0,0,0,0,0,-1.8832,-1.8809,-1.8759,-1.8725,-1.8704,-1.8563,-1.8647,-1.8647,-1.8612,-1.862,-1.8579,-1.8576,-1.8583,-1.8475,-1.8456,-1.839,-1.8509,-1.82,-1.8191,-1.8183,-1.8098,-1.808,-1.8064,0,0,0,0,0,-1.884,-1.8736,-1.8756,-1.8737,-1.8642,-1.8559,-1.8547,-1.8558,-1.8606,-1.8556,-1.8544,-1.8578,-1.8409,-1.8464,-1.8444,-1.8374,-1.8204,-1.8194,-1.8184,-1.8105,-1.8083,-1.8065,0,0,0,0,0,0,-1.876,-1.8731,-1.8754,-1.8636,-1.86,-1.857,-1.8507,-1.8534,-1.8482,-1.8492,-1.8506,-1.8496,-1.839,-1.8372,-1.8434,-1.8246,-1.8314,-1.8299,-1.8261,-1.824,-1.8224,-1.8229,-1.8503,0,0,0,0,0,-1.8729,-1.8665,-1.8643,-1.8541,-1.8522,-1.8518,-1.8482,-1.8494,-1.8456,-1.8441,-1.8421,-1.8383,-1.8321,-1.828,-1.8222,-1.8096,-1.8088,-1.8039,-1.8022,-1.8008,-1.7995,-1.7927,-1.7905,-1.8145,-1.8145,-1.8145,0,0,-1.8663,-1.864,-1.8598,-1.8524,-1.8498,-1.8431,-1.8504,-1.843,-1.838,-1.8429,-1.8332,-1.8316,-1.8275,-1.8161,-1.8109,-1.8142,-1.7927,-1.7995,-1.7984,-1.7978,-1.7914,-1.7892,-1.7871,-1.8138,-1.8139,-1.814,0,0,-1.851,-1.8486,-1.8398,-1.8371,-1.8331,-1.8329,-1.8308,-1.8275,-1.8267,-1.817,-1.8206,-1.8147,-1.8041,-1.801,-1.798,-1.7818,-1.7847,-1.7799,-1.771,-1.7645,-1.7626,-1.7609,-1.7551,-1.753,-1.7786,-1.7785,-1.7785,0,-1.8433,-1.8334,-1.835,-1.8273,-1.8239,-1.8283,-1.8195,-1.8167,-1.8109,-1.8085,-1.8124,-1.7992,-1.7967,-1.7847,-1.7807,-1.7782,-1.7758,-1.7802,-1.7627,-1.7611,-1.7595,-1.754,-1.7518,-1.778,-1.778,-1.7781,-1.7781,0,-1.8241,-1.8172,-1.8106,-1.8051,-1.801,-1.7928,-1.7931,-1.7888,-1.7904,-1.7898,-1.78,-1.7772,-1.771,-1.7683,-1.7696,-1.7564,-1.7586,-1.7626,-1.7694,-1.7567,-1.7515,-1.7493,-1.7772,-1.7774,-1.7775,-1.7777,0,0,-1.8031,-1.7989,-1.7964,-1.794,-1.79,-1.7846,-1.7767,-1.7708,-1.767,-1.763,-1.7563,-1.7473,-1.751,-1.7477,-1.7488,-1.743,-1.7304,-1.7477,-1.7477,-1.7445,-1.7156,-1.7125,-1.71,-1.7324,-1.732,-1.7317,-1.7159,0,-1.7875,-1.7737,-1.775,-1.7618,-1.7555,-1.7597,-1.7528,-1.7495,-1.7489,-1.7434,-1.7426,-1.7362,-1.7416,-1.7396,-1.7342,-1.733,-1.7245,-1.7342,-1.7261,-1.7257,-1.7268,-1.7073,-1.704,-1.6892,-1.7139,-1.7136,-1.7133,0,-1.7673,-1.7627,-1.7489,-1.7461,-1.7435,-1.7372,-1.732,-1.7267,-1.7231,-1.7231,-1.7195,-1.7216,-1.7136,-1.7208,-1.7097,-1.7163,-1.7131,-1.7121,-1.7115,-1.7106,-1.7186,-1.7058,-1.6846,-1.6823,-1.7101,-1.7104,-1.7106,0,-1.7533,-1.7437,-1.7343,-1.7321,-1.7285,-1.724,-1.7223,-1.7192,-1.7156,-1.7111,-1.7088,-1.7033,-1.7002,-1.6959,-1.6966,-1.7017,-1.6853,-1.6925,-1.6849,-1.6849,-1.681,-1.6812,-1.6589,-1.6792,-1.6793,-1.6793,-1.6794,0,-1.7356,-1.727,-1.7279,-1.7221,-1.7126,-1.7143,-1.7048,-1.7037,-1.7009,-1.6949,-1.6983,-1.6926,-1.6939,-1.6882,-1.6887,-1.6794,-1.678,-1.6777,-1.6779,-1.6773,-1.6773,-1.6751,-1.676,-1.6787,-1.6788,-1.679,-1.6791,0,-1.7182,-1.7185,-1.7085,-1.706,-1.7052,-1.6983,-1.6962,-1.6907,-1.6905,-1.6828,-1.6811,-1.6807,-1.6742,-1.6745,-1.6671,-1.6674,-1.656,-1.6575,-1.6572,-1.6575,-1.6498,-1.6505,-1.6251,-1.6218,-1.6444,-1.6442,-1.644,0,-1.7068,-1.7003,-1.6972,-1.6935,-1.6915,-1.6855,-1.6819,-1.6834,-1.6795,-1.6752,-1.6702,-1.6641,-1.6592,-1.6486,-1.6476,-1.642,-1.6433,-1.6348,-1.6424,-1.6421,-1.643,-1.6433,-1.6427,-1.6332,-1.6329,-1.6327,-1.6325,0,-1.6864,-1.687,-1.6818,-1.6766,-1.6723,-1.6682,-1.6646,-1.6613,-1.6624,-1.6579,-1.6514,-1.6477,-1.6403,-1.6341,-1.6288,-1.6271,-1.6299,-1.6302,-1.6281,-1.6273,-1.6274,-1.6272,-1.653,-1.6307,-1.6309,-1.631,-1.6311,-1.6312,-1.6716,-1.6661,-1.6631,-1.6572,-1.6547,-1.6512,-1.6459,-1.6451,-1.6398,-1.6339,-1.6352,-1.6278,-1.6247,-1.6179,-1.6156,-1.6099,-1.6129,-1.6099,-1.6092,-1.6083,-1.6074,-1.6285,-1.609,-1.609,-1.6091,-1.6091,-1.6092,0,-1.6514,-1.6498,-1.6443,-1.6392,-1.6345,-1.6379,-1.6341,-1.63,-1.6235,-1.6204,-1.6156,-1.6082,-1.6023,-1.601,-1.5953,-1.591,-1.5922,-1.5895,-1.5897,-1.5893,-1.6051,-1.6074,-1.5886,-1.5886,-1.5886,-1.5886,-1.5886,-1.5886,-1.6403,-1.6311,-1.6313,-1.621,-1.6194,-1.6124,-1.6099,-1.6067,-1.6043,-1.5959,-1.591,-1.5903,-1.5878,-1.5821,-1.5769,-1.5767,-1.5744,-1.5711,-1.5713,-1.5861,-1.5881,-1.5901,-1.5923,-1.5706,-1.5706,-1.5559,-1.5558,-1.5557]}]]